Regional Weather Roundup
Issued by NWS Wakefield, VA

Home | Current Version | Previous Version | Graphics & Text | Print | Product List | Glossary On
Versions: 1 2 3 4 5 6 7 8 9 10 11 12 13 14 15 16 17 18 19 20 21 22 23 24 25 26 27 28 29 30 31 32 33 34 35 36 37 38 39 40 41 42 43 44 45 46 47 48 49 50
000
ASUS41 KAKQ 031915
RWRAKQ

REGIONAL WEATHER ROUNDUP
NATIONAL WEATHER SERVICE WAKEFIELD VA
300 PM EDT SUN MAY 03 2015

Note: "fair" indicates few or no clouds below 12,000 feet with no
significant weather and/or obstructions to visibility. * = Denotes
station may not report precipitation (e.g., rain,snow,etc.),
thunder or fog.

VAZ042-051-052>054-056-032000-
NORTHERN VIRGINIA

CITY           SKY/WX    TMP DP  RH WIND       PRES   REMARKS
WASH NATIONAL  MOSUNNY   84  41  21 CALM      30.10F
DULLES         PTSUNNY   77  40  26 NW6G21    30.11F
FORT BELVOIR   MOSUNNY   80  42  26 W9        30.10F
QUANTICO       MOSUNNY   74  52  46 S9        30.12F
FREDERICKSBRG* MOSUNNY   79  41  25 NW3       30.11S
STAFFORD*      MOSUNNY   78  35  21 W6        30.15F
WARRENTON      MOSUNNY   82  47  29 W3        30.11F
CULPEPER*      NOT AVBL
MANASSAS*      MOSUNNY   79  41  25 NE6       30.11F
LEESBURG*      MOSUNNY   79  46  31 NW7G17    30.11F
WINCHESTER     MOSUNNY   79  32  18 S7        30.12S
FRONT ROYAL*   MOCLDY    75  41  29 CALM      30.11S
LURAY*         MOCLDY    77  46  33 SW3       30.13S
$$

VAZ048-049-060>072-079>083-032000-
CENTRAL AND SOUTH CENTRAL VIRGINIA

CITY           SKY/WX    TMP DP  RH WIND       PRES   REMARKS
RICHMOND       MOSUNNY   78  36  21 CALM      30.13F
CHESTERFIELD*  CLOUDY    79  39  24 CALM      30.14F
PETERSBURG*    MOSUNNY   78  35  20 S5        30.14F
HANOVER        CLOUDY    78  40  25 VRB6      30.14F
TAPPAHANNOCK*  MOSUNNY   78  30  17 S3        30.13S
QUINTON*       CLOUDY    80  42  25 NW3       30.12F
CHARLOTTSVILLE MOSUNNY   76  39  26 VRB3      30.13S
GORDONSVILLE*  FAIR      78  42  28 SW8       30.12F
ORANGE*        MOSUNNY   77  43  29 SE3       30.14F
LOUISA*        CLOUDY    77  43  29 CALM      30.12F
BUMPASS*       FAIR      77  39  25 CALM      30.13S
FARMVILLE*     CLOUDY    78  39  24 CALM      30.13F
CREWE*         FAIR      78  36  22 W8        30.15S
FORT PICKETT*  FAIR      78  40  24 S7        30.15S
CHASE CITY*    MOCLDY    78  44  29 CALM      30.15F
CLARKSVILLE*   FAIR      73  41  31 CALM      30.15F
SOUTH HILL*    PTSUNNY   76  43  30 SW9       30.21F
LAWRENCEVILLE* FAIR      78  42  28 CALM      30.15S
EMPORIA*       PTSUNNY   79  43  27 SW7       30.16F
$$

VAZ088>098-032000-
SOUTHEAST VIRGINIA

CITY           SKY/WX    TMP DP  RH WIND       PRES   REMARKS
NORFOLK        MOSUNNY   80  36  20 NW7       30.13F
VIRGINIA BEACH MOSUNNY   79  40  24 VRB3      30.13S
NORFOLK NAVAL  PTSUNNY   82  41  23 VRB7      30.15S
WEST POINT*    SUNNY     82  25  12 CALM      30.14F
SALUDA*        FAIR      78  43  28 NW6       30.12F
NEWPORT NEWS   SUNNY     83  41  22 W12G18    30.13F
LANGLEY AFB    MOSUNNY   78  43  28 VRB6      30.12S
FORT EUSTIS    SUNNY     79  42  26 W6        30.11F
WILLIAMSBURG*  SUNNY     84  45  24 W9        30.14S
HR EXEC AP*    FAIR      81  45  28 CALM      30.15F
FRANKLIN*      PTSUNNY   77  40  25 CALM      30.14F
WAKEFIELD      PTSUNNY   80  40  23 W3        30.14F
$$

VAZ020-022-025-037-045-032000-
WEST CENTRAL AND SOUTHWEST VIRGINIA

CITY           SKY/WX    TMP DP  RH WIND       PRES   REMARKS
STAUNTON*      MOSUNNY   75  38  25 E5        30.17S
WAYNESBORO*    FAIR      74  37  26 S6        30.15F
HOT SPRINGS VA CLOUDY    65  32  28 S7        30.21F
LYNCHBURG      PTSUNNY   74  37  26 VRB3      30.17F
DANVILLE       MOSUNNY   79  42  26 MISG      30.16F
SOUTH BOSTON*  MOCLDY    78  38  24 W6        30.15F
MARTINSVILLE   MOSUNNY   78  40  25 NW5       30.18F
ROANOKE        PTSUNNY   74  36  25 CALM      30.17F
BLACKSBURG     PTSUNNY   68  36  30 NW3       30.22F
DUBLIN*        CLOUDY    72  38  29 CALM      30.20S
MARION*        MOSUNNY   72  38  29 CALM      30.20F
HILLSVILLE*    PTSUNNY   70  43  37 S3        30.21S
RICHLANDS*     FAIR      70  32  24 S6        30.19F
WISE*          PTSUNNY   72  34  25 W8        30.20F
ABINGDON*      SUNNY     74  36  25 NW10      30.17F
$$

MDZ021>025-VAZ099-100-032000-
SOUTHERN MARYLAND AND THE DELMARVA PENINSULA

CITY           SKY/WX    TMP DP  RH WIND       PRES   REMARKS
PATUXENT RIVER MOSUNNY   75  44  33 S7        30.12S
BAY BRIDGE APT   N/A    N/A N/A N/A S3        30.10S
LEONARDTOWN    CLOUDY    77  37  24 CALM      30.13F
DOVER          SUNNY     74  49  39 E8        30.07F
GEORGETOWN     SUNNY     78  41  26 E12G29    30.10F
EASTON         MOSUNNY   81  43  26 NW7       30.14F
CAMBRIDGE      SUNNY     79  37  22 N9        30.11S
SALISBURY      MOSUNNY   79  40  24 N7        30.10S
OCEAN CITY     SUNNY     63  51  65 SE7       30.12S
WALLOPS ISLAND SUNNY     78  45  30 W8G23     30.11S
ACCOMACK*      SUNNY     75  50  41 W8        30.13S
$$

NCZ012>017-030>032-032000-
NORTH CENTRAL AND EASTERN NORTH CAROLINA

CITY           SKY/WX    TMP DP  RH WIND       PRES   REMARKS
ROANOKE RAPIDS FAIR      73  43  33 CALM      30.16S
RALEIGH        PTSUNNY   76  43  30 CALM      30.17F
ELIZABETH CITY PTSUNNY   75  48  38 SE7       30.15F
AHOSKIE*       MOSUNNY   77  42  29 CALM      30.15F
EDENTON*       MOSUNNY   78  47  33 W3        30.16F
CURRITUCK*     PTSUNNY   78  39  24 SW7       30.15S
KILL DEVIL HLS MOSUNNY   76  46  34 W6        30.15F
MANTEO         MOSUNNY   76  41  28 W6        30.17S
CAPE HATTERAS  SUNNY     72  52  49 VRB5      30.18F
TARBORO*       FAIR      80  46  30 W5        30.17F
GOLDSBORO      MOSUNNY   79  46  32 SW2       30.15F
WASHINGTON     MOSUNNY   75  44  33 CALM      30.17F
GREENVILLE     MOSUNNY   77  45  31 W6        30.18F
NEW BERN       MOSUNNY   78  42  27 E7        30.18F
WILMINGTON     SUNNY     77  41  27 S9        30.19S
$$

VAZ048-032000-
ELSEWHERE

CITY           SKY/WX    TMP DP  RH WIND       PRES   REMARKS
HARRISBURG PA  MOSUNNY   79  38  22 CALM      30.07F
BALTIMORE      MOSUNNY   79  42  26 W8        30.08F
ANNAPOLIS      PTSUNNY   68  52  56 SE12      30.09F
ANDREWS AFB    SUNNY     79  42  26 W10       30.10S
PHILADELPHIA   MOSUNNY   79  37  22 S7        30.08F
HENDERSON NC   MOSUNNY   77  36  22 NW5       30.16F
GREENSBORO     PTSUNNY   75  42  30 S3        30.16F
ROCKY MOUNT    MOSUNNY   76  44  32 S6        30.17S
$$

VAZ100-032000-
MARINE

STATION/POSITION TIME  TEMP    WIND        PRES    WAVE   SWELL
                       AIR SEA DIR/SP/G            HT/PER HT/PER
                 (UTC) (F)     (DEG/KT/KT) (MB)    (FT/S) (FT/S)
BRANDYWINE LGT   1800   59 55  220/  4/  4 1019.9S
CAPE MAY NJ      1800   59 58  240/  9/ 10 1019.2F
LEWES DE         1800   59 53   10/  2/  3 1019.7F
15NM E FENWICK I 1850   53 52              1020.0S   4/ 8
OCEAN-CITY-INLET 1806   63 56  170/  3/  4 1019.9
WACHAPREAGUE VA  1800   80 65   CALM  /  6 1020.1F
THOMAS POINT MD  1900   72 57  150/  9/  9 1019.8F
GOOSES REEF MD   1900   65 62                N/A     0
COVE POINT MD    1800   67     100/  1/  2 1020.6F
SOLOMONS ISLAND  1806      61                N/A
BISHOPS HEAD MD  1800   64 64  170/  3/  4 1019.6F
PINEY POINT MD   1800          310/  4/  5   N/A
CAMBRIDGE MD     1800   74 61  310/  7/ 10 1019.6R
LEWISETTA VA     1800   68 62              1019.8F
RAPPAHANNOCK LGT 1800          190/  5/  5 1020.9F
YORK RVR RNG VA  1818          170/ 10/ 11 1019.8F
YORKTOWN VA      1818          310/  7/  8 1020.1F
JAMESTOWN VA     1900   74 67  320/  4/  6 1019.4F
DOMINION TERM VA 1800   74     260/  1/  2 1020.7F
KIPTOPEKE VA     1800      62  180/  2/  3   N/A
CHES BAY BRIDGE  1806   71 61   CALM  /  1 1020.3
CAPE HENRY VA    1800   71     320/  6/  7 1019.4F
CHESAPEAKE LGHT  1800   69     290/  7/  8 1021.5F
WILLOUBY STN VA  1800   74     220/  8/  9 1021.1F
S CRANEY ISL VA  1818          300/  6/  9 1020.6F
CAPE HENRY BUOY  1828      59                N/A     4/10   2/11
1ST LANDING BUOY 1900      61                N/A     2/ 6
CAPE CHARLES BUO 1826      60                N/A     4/10   3/10
OFFSHORE WE BUOY 1811      55                N/A     4/12   5/12
64NM E OF VA BCH 1850   61 62  220/  4/  6 1020.9S   5/11   5/11
DUCK PIER NC     1806   72 53  220/  9/ 11 1020.4S
44056 DUCK FRF   1811      59                N/A     5/11   3/11
OREGON INLET NC  1800   75 57  300/  6/  9 1021.6S
HATTERAS NC      1806   69 61  260/  7/  8 1021.7
DIAMOND SHLS NC  1850   63 62  260/  6/  8 1022.3F   5/11   5/11
CAPE LOOKOUT NC  1900   71     230/ 10/ 12 1021.9F
$$


USA.gov is the U.S. government's official web portal to all federal, state and local government web resources and services.